Weather History for Fairmont, MN

Change the Weather History Date:

Monday, February 6, 2012

  Actual Average Record
Temperature  
Mean Temperature 36 °F -  
Max Temperature 48 °F 23 °F 52 °F (1987)
Min Temperature 23 °F 5 °F -16 °F (1978)
Degree Days  
Heating Degree Days 30    
Moisture  
Dew Point 27 °F    
Average Humidity 80    
Maximum Humidity 93    
Minimum Humidity 54    
Precipitation  
Precipitation 0.00 in - - ()
Sea Level Pressure  
Sea Level Pressure 30.15 in    
Wind  
Wind Speed 9 mph (WSW)    
Max Wind Speed 15 mph    
Max Gust Speed -    
Visibility 7 miles    
Events      
Averages and records for this station are not official NWS values.
T = Trace of Precipitation, MM = Missing Value Source: NWS Daily Summary

Daily Weather History Graph

Daily Weather History Graph

Search for Another Location

Airport:

Trip Planner

Search our weather history database for the weather conditions in past years. The results will help you decide how hot, cold, wet, or windy it might be!

Date:

Astronomy

Feb. 06, 2012 Rise Set
Actual Time 7:28 AM CST 5:35 PM CST
Civil Twilight 6:58 AM CST 6:05 PM CST
Nautical Twilight 6:24 AM CST 6:39 PM CST
Astronomical Twilight 5:51 AM CST 7:12 PM CST
Moon 4:39 PM CST (2/6) 6:22 AM CST (2/6)
Length of Visible Light 11h 06m
Length of Day
10h 06m
Waxing Gibbous, 98% of the Moon is Illuminated
Feb 6
Waxing Gibbous
Feb 7
Full
Feb 14
Last Quarter
Feb 21
New
Feb 29
First Quarter

Hourly Weather History & Observations

Time (CST) Temp. Windchill Dew Point Humidity Pressure Visibility Wind Dir Wind Speed Gust Speed Precip Events Conditions
12:15 AM 24.8 °F 16.9 °F 21.2 °F 86% 30.24 in 8.0 mi WSW 6.9 mph - N/A   Clear
12:35 AM 24.8 °F 14.6 °F 21.2 °F 86% 30.23 in 2.5 mi WSW 10.4 mph - N/A   Mostly Cloudy
12:55 AM 24.8 °F 15.3 °F 23.0 °F 93% 30.23 in 2.0 mi WSW 9.2 mph - N/A   Overcast
1:15 AM 24.8 °F 14.6 °F 23.0 °F 93% 30.23 in 1.2 mi WSW 10.4 mph - N/A   Overcast
1:35 AM 26.6 °F 16.2 °F 23.0 °F 86% 30.22 in 1.8 mi WSW 11.5 mph - N/A   Overcast
1:55 AM 26.6 °F 16.8 °F 23.0 °F 86% 30.22 in 1.2 mi WSW 10.4 mph - N/A   Overcast
2:15 AM 26.6 °F 16.2 °F 23.0 °F 86% 30.22 in 1.8 mi WSW 11.5 mph - N/A   Overcast
2:35 AM 24.8 °F 14.6 °F 23.0 °F 93% 30.21 in 1.5 mi WSW 10.4 mph - N/A   Overcast
2:55 AM 24.8 °F 13.4 °F 23.0 °F 93% 30.21 in 2.5 mi WSW 12.7 mph - N/A   Overcast
3:15 AM 24.8 °F 16.1 °F 23.0 °F 93% 30.20 in 2.0 mi SW 8.1 mph - N/A   Overcast
3:35 AM 24.8 °F 16.1 °F 23.0 °F 93% 30.19 in 2.5 mi SW 8.1 mph - N/A   Overcast
3:55 AM 24.8 °F 15.3 °F 23.0 °F 93% 30.18 in 1.5 mi SW 9.2 mph - N/A   Overcast
4:15 AM 24.8 °F 14.6 °F 21.2 °F 86% 30.18 in 1.0 mi SW 10.4 mph - N/A   Overcast
4:35 AM 24.8 °F 15.3 °F 21.2 °F 86% 30.18 in 1.0 mi SW 9.2 mph - N/A   Overcast
4:55 AM 24.8 °F 15.3 °F 21.2 °F 86% 30.17 in 1.5 mi WSW 9.2 mph - N/A   Overcast
5:15 AM 24.8 °F 14.0 °F 21.2 °F 86% 30.17 in 1.8 mi SW 11.5 mph - N/A   Overcast
5:35 AM 24.8 °F 14.6 °F 21.2 °F 86% 30.17 in 2.0 mi WSW 10.4 mph - N/A   Overcast
5:55 AM 24.8 °F 14.6 °F 21.2 °F 86% 30.17 in 1.5 mi WSW 10.4 mph - N/A   Overcast
6:15 AM 24.8 °F 16.9 °F 21.2 °F 86% 30.16 in 5.0 mi SW 6.9 mph - N/A   Overcast
6:35 AM 23.0 °F 14.7 °F 21.2 °F 93% 30.16 in 9.0 mi WSW 6.9 mph - N/A   Mostly Cloudy
6:55 AM 23.0 °F 13.1 °F 19.4 °F 86% 30.16 in 10.0 mi SW 9.2 mph - N/A   Partly Cloudy
7:15 AM 23.0 °F 13.9 °F 19.4 °F 86% 30.15 in 10.0 mi SW 8.1 mph - N/A   Clear
7:35 AM 23.0 °F 15.8 °F 19.4 °F 86% 30.16 in 8.0 mi SW 5.8 mph - N/A   Clear
7:55 AM 23.0 °F 14.7 °F 21.2 °F 93% 30.16 in 2.5 mi SW 6.9 mph - N/A   Mostly Cloudy
8:15 AM 23.0 °F 14.7 °F 21.2 °F 93% 30.16 in 1.8 mi SW 6.9 mph - N/A   Overcast
8:35 AM 24.8 °F 17.9 °F 21.2 °F 86% 30.16 in 6.0 mi SW 5.8 mph - N/A   Mostly Cloudy
8:55 AM 24.8 °F 16.9 °F 23.0 °F 93% 30.16 in 9.0 mi SW 6.9 mph - N/A   Clear
9:15 AM 26.6 °F 18.2 °F 24.8 °F 93% 30.16 in 10.0 mi SW 8.1 mph - N/A   Clear
9:35 AM 26.6 °F 19.1 °F 24.8 °F 93% 30.16 in 10.0 mi SW 6.9 mph - N/A   Clear
9:55 AM 28.4 °F 21.2 °F 26.6 °F 93% 30.16 in 10.0 mi SSW 6.9 mph - N/A   Clear
10:15 AM 30.2 °F 22.6 °F 28.4 °F 93% 30.16 in 10.0 mi SW 8.1 mph - N/A   Clear
10:35 AM 30.2 °F 22.6 °F 28.4 °F 93% 30.16 in 10.0 mi SW 8.1 mph - N/A   Clear
10:55 AM 33.8 °F 27.0 °F 28.4 °F 81% 30.15 in 10.0 mi SW 8.1 mph - N/A   Clear
11:15 AM 33.8 °F 26.4 °F 28.4 °F 81% 30.15 in 10.0 mi SW 9.2 mph - N/A   Clear
11:35 AM 35.6 °F 28.0 °F 28.4 °F 75% 30.14 in 10.0 mi SW 10.4 mph - N/A   Clear
11:55 AM 37.4 °F 30.8 °F 30.2 °F 75% 30.14 in 10.0 mi SW 9.2 mph - N/A   Clear
12:15 PM 37.4 °F 30.3 °F 30.2 °F 75% 30.13 in 10.0 mi SW 10.4 mph - N/A   Clear
12:35 PM 39.2 °F 32.0 °F 32.0 °F 75% 30.13 in 10.0 mi SW 11.5 mph - N/A   Clear
12:55 PM 39.2 °F 32.5 °F 30.2 °F 70% 30.12 in 10.0 mi WSW 10.4 mph - N/A   Clear
1:15 PM 39.2 °F 32.0 °F 32.0 °F 75% 30.11 in 10.0 mi WSW 11.5 mph - N/A   Clear
1:35 PM 39.2 °F 33.0 °F 32.0 °F 75% 30.11 in 10.0 mi WSW 9.2 mph - N/A   Clear
1:55 PM 42.8 °F 38.0 °F 33.8 °F 70% 30.10 in 10.0 mi West 8.1 mph - N/A   Clear
2:15 PM 42.8 °F 37.5 °F 33.8 °F 70% 30.10 in 10.0 mi WSW 9.2 mph - N/A   Clear
2:35 PM 44.6 °F 40.7 °F 35.6 °F 71% 30.09 in 10.0 mi West 6.9 mph - N/A   Clear
2:55 PM 46.4 °F 43.5 °F 33.8 °F 62% 30.09 in 10.0 mi West 5.8 mph - N/A   Clear
3:15 PM 46.4 °F 41.9 °F 33.8 °F 62% 30.09 in 10.0 mi WNW 9.2 mph - N/A   Clear
3:35 PM 48.2 °F - 33.8 °F 58% 30.09 in 10.0 mi WNW 6.9 mph - N/A   Clear
3:55 PM 48.2 °F - 32.0 °F 54% 30.09 in 10.0 mi WNW 9.2 mph - N/A   Clear
4:15 PM 48.2 °F - 32.0 °F 54% 30.09 in 10.0 mi WNW 5.8 mph - N/A   Clear
4:35 PM 46.4 °F 42.9 °F 33.8 °F 62% 30.10 in 10.0 mi WNW 6.9 mph - N/A   Clear
4:55 PM 46.4 °F 44.3 °F 33.8 °F 62% 30.10 in 10.0 mi WNW 4.6 mph - N/A   Clear
5:15 PM 44.6 °F 40.7 °F 32.0 °F 61% 30.10 in 10.0 mi NNW 6.9 mph - N/A   Clear
5:35 PM 41.0 °F 36.4 °F 30.2 °F 65% 30.11 in 10.0 mi NNW 6.9 mph - N/A   Clear
5:55 PM 37.4 °F 31.4 °F 30.2 °F 75% 30.12 in 10.0 mi NNW 8.1 mph - N/A   Clear
6:15 PM 37.4 °F 32.1 °F 28.4 °F 70% 30.12 in 10.0 mi NNW 6.9 mph - N/A   Clear
6:35 PM 37.4 °F 30.3 °F 28.4 °F 70% 30.13 in 10.0 mi NNW 10.4 mph - N/A   Clear
6:55 PM 37.4 °F 30.8 °F 28.4 °F 70% 30.13 in 10.0 mi NNW 9.2 mph - N/A   Clear
7:15 PM 37.4 °F 29.8 °F 28.4 °F 70% 30.14 in 10.0 mi NNW 11.5 mph - N/A   Clear
7:35 PM 35.6 °F 27.1 °F 28.4 °F 75% 30.14 in 10.0 mi NNW 12.7 mph - N/A   Clear
7:55 PM 35.6 °F 26.6 °F 28.4 °F 75% 30.15 in 10.0 mi NNW 13.8 mph - N/A   Clear
8:15 PM 35.6 °F 26.2 °F 28.4 °F 75% 30.16 in 10.0 mi NNW 15.0 mph - N/A   Clear
8:35 PM 33.8 °F 24.3 °F 28.4 °F 81% 30.17 in 10.0 mi NNW 13.8 mph - N/A   Clear
8:55 PM 33.8 °F 24.8 °F 26.6 °F 75% 30.18 in 10.0 mi NW 12.7 mph - N/A   Clear
9:15 PM 32.0 °F 21.2 °F 26.6 °F 80% 30.19 in 10.0 mi NNW 16.1 mph - N/A   Clear
9:35 PM 32.0 °F 22.1 °F 26.6 °F 80% 30.20 in 10.0 mi NNW 13.8 mph - N/A   Clear
9:55 PM 32.0 °F 22.5 °F 26.6 °F 80% 30.21 in 10.0 mi NW 12.7 mph 18.4 mph N/A   Clear
10:15 PM 30.2 °F 20.8 °F 26.6 °F 86% 30.21 in 10.0 mi NW 11.5 mph - N/A   Clear
10:35 PM 30.2 °F 20.2 °F 26.6 °F 86% 30.22 in 10.0 mi NNW 12.7 mph - N/A   Clear
10:55 PM 30.2 °F 20.8 °F 26.6 °F 86% 30.22 in 10.0 mi NNW 11.5 mph - N/A   Clear
11:15 PM 32.0 °F 21.6 °F 26.6 °F 80% 30.23 in 10.0 mi North 15.0 mph - N/A   Mostly Cloudy
11:35 PM 33.8 °F 23.2 °F 26.6 °F 75% 30.24 in 10.0 mi North 17.3 mph - N/A   Overcast
11:55 PM 32.0 °F 21.6 °F 26.6 °F 80% 30.25 in 10.0 mi North 15.0 mph 19.6 mph N/A   Overcast